Location: Stull Observatory
(42.2506°N, 77.7903°W)
Time: 16:41:39
(UTC-04:00)

Okean O Rocket - Visible Passes

Search period start: 30 April 2016 00:00
Search period end: 10 May 2016 00:00
Orbit: 624 x 645 km, 98.0° (Epoch: 29 April)

Date Brightness Start Highest point End Pass type
(mag) Time Alt. Az. Time Alt. Az. Time Alt. Az.
30 Apr 4.1 03:35:07 10° NE 03:38:03 17° E 03:40:59 10° SE visible
30 Apr 2.0 05:10:24 10° N 05:14:40 46° WNW 05:18:55 10° SW visible
01 May 3.4 03:56:08 10° NE 04:00:00 28° E 04:03:51 10° SSE visible
01 May 2.7 05:32:30 10° N 05:36:19 28° WNW 05:40:06 10° SW visible
02 May 2.5 04:17:32 10° NNE 04:21:53 48° E 04:25:57 11° S visible
03 May 1.7 04:39:11 10° NNE 04:43:41 83° E 04:48:03 11° SSW visible
04 May 4.3 03:26:26 10° ENE 03:28:40 14° E 03:30:54 10° ESE visible
04 May 1.8 05:01:01 10° N 05:05:25 58° WNW 05:09:48 10° SSW visible
05 May 3.7 03:47:06 10° NE 03:50:39 23° E 03:54:10 10° SSE visible
05 May 2.4 05:23:02 10° N 05:27:05 35° WNW 05:31:08 10° SW visible
06 May 2.9 04:08:23 10° NNE 04:12:33 38° E 04:16:42 10° SSE visible
07 May 2.0 04:29:56 10° NNE 04:34:23 65° ESE 04:38:49 10° S visible
08 May 4.5 03:18:21 10° ENE 03:19:16 11° E 03:20:12 10° E visible
08 May 1.6 04:51:41 10° N 04:56:10 74° WNW 05:00:35 10° SSW visible
09 May 4.0 03:38:11 10° NE 03:41:17 18° E 03:44:21 10° SE visible
09 May 2.2 05:13:37 10° N 05:17:52 43° WNW 05:22:03 10° SW visible
